Date String (YYYY-MM-DD hh:mm:ss) UTC,Instrument flags,Ambient pressure (hPa),Sample flow (lpm),Bypass flow (lpm),Sample temperature (°C),Ambient temperature (°C),ASC tube jacket temperature (°C),LED temperature (°C),Box temperature (°C),Sample RH (%),Span deviation,Mass concentration (μg/m³),Mass concentration (μg/m³),Mass concentration (μg/m³)
DateTimeUTC,F1_M11,P_M11,Q1_M11,Q2_M11,T1_M11,T2_M11,T3_M11,T4_M11,T5_M11,U1_M11,ZSPAN_M11,X0_M11,X2_M11,X1_M11
2022-05-05 23:00:00,,0822.1,4.99,0.00,30.2,29.6,00.0,39.0,32.0,10.4,0000.0,0009.88,0004.45,0003.30
2022-05-05 23:01:00,,0822.1,5.02,0.00,30.2,29.6,00.0,39.0,32.0,10.9,0000.0,0009.91,0004.45,0003.30
2022-05-05 23:02:00,,0822.1,4.98,0.00,30.3,29.6,00.0,39.1,32.0,10.6,0000.0,0009.92,0004.46,0003.30
2022-05-05 23:03:00,,0822.1,5.00,0.00,30.3,29.6,00.0,39.1,32.1,10.6,0000.0,0009.59,0004.46,0003.32
2022-05-05 23:04:00,,0822.1,5.00,0.00,30.3,29.6,00.0,39.1,32.1,10.5,0000.0,0009.44,0004.48,0003.31
2022-05-05 23:05:00,,0822.1,4.98,0.00,30.3,29.6,00.0,39.1,32.1,10.9,0000.0,0009.53,0004.55,0003.32
2022-05-05 23:06:00,,0822.1,4.99,0.00,30.3,29.6,00.0,39.1,32.1,10.8,0000.0,0009.65,0004.54,0003.32
2022-05-05 23:07:00,,0822.1,5.02,0.00,30.3,29.7,00.0,39.1,32.1,10.5,0000.0,0009.68,0004.55,0003.32
2022-05-05 23:08:00,,0822.1,4.99,0.00,30.3,29.7,00.0,39.1,32.1,10.2,0000.0,0009.65,0004.53,0003.33
2022-05-05 23:09:00,,0822.1,5.00,0.00,30.3,29.7,00.0,39.2,32.1,10.2,0000.0,0009.50,0004.50,0003.35
2022-05-05 23:10:00,,0822.1,5.00,0.00,30.3,29.7,00.0,39.2,32.1,10.3,0000.0,0009.32,0004.57,0003.37
2022-05-05 23:11:00,,0822.1,5.00,0.00,30.4,29.7,00.0,39.2,32.2,10.4,0000.0,0009.54,0004.65,0003.38
2022-05-05 23:12:00,,0822.0,5.00,0.00,30.4,29.6,00.0,39.2,32.1,10.4,0000.0,0009.87,0004.68,0003.39
2022-05-05 23:13:00,,0822.0,5.01,0.00,30.3,27.7,00.0,39.2,31.7,10.4,0000.0,0010.11,0004.73,0003.40
2022-05-05 23:14:00,,0822.1,4.99,0.00,30.2,26.0,00.0,39.1,31.3,10.5,0000.0,0010.16,0004.73,0003.40
2022-05-05 23:15:00,,0822.1,5.01,0.00,30.1,26.1,00.0,39.1,31.4,10.7,0000.0,0010.13,0004.68,0003.41
2022-05-05 23:16:00,,0822.1,4.99,0.00,30.0,26.6,00.0,39.0,31.4,10.6,0000.0,0010.05,0004.61,0003.41
2022-05-05 23:17:00,,0822.1,5.01,0.00,29.9,27.0,00.0,39.0,31.5,11.0,0000.0,0009.89,0004.62,0003.42
2022-05-05 23:18:00,,0822.1,4.99,0.00,29.9,27.5,00.0,39.0,31.6,10.6,0000.0,0009.91,0004.63,0003.42
2022-05-05 23:19:00,,0822.2,5.01,0.00,29.9,27.8,00.0,38.9,31.7,11.0,0000.0,0009.90,0004.63,0003.42
2022-05-05 23:20:00,,0822.1,5.00,0.00,30.0,28.1,00.0,38.9,31.7,10.9,0000.0,0009.88,0004.65,0003.42
2022-05-05 23:21:00,,0822.2,5.01,0.00,30.0,28.4,00.0,38.9,31.7,11.0,0000.0,0009.63,0004.54,0003.41
2022-05-05 23:22:00,,0822.2,5.00,0.00,30.0,28.5,00.0,38.9,31.8,10.6,0000.0,0009.63,0004.53,0003.40
2022-05-05 23:23:00,,0822.1,5.00,0.00,30.0,28.7,00.0,38.9,31.8,10.9,0000.0,0009.31,0004.48,0003.40
2022-05-05 23:24:00,,0822.1,4.99,0.00,30.0,28.8,00.0,38.9,31.7,11.1,0000.0,0009.29,0004.49,0003.39
2022-05-05 23:25:00,,0822.1,5.00,0.00,30.0,28.9,00.0,38.9,31.8,10.5,0000.0,0009.31,0004.51,0003.39
2022-05-05 23:26:00,,0822.1,5.01,0.00,30.0,29.0,00.0,38.9,31.9,11.2,0000.0,0009.25,0004.55,0003.39
2022-05-05 23:27:00,,0822.1,5.00,0.00,30.1,29.1,00.0,38.9,31.9,10.8,0000.0,0009.30,0004.58,0003.40
2022-05-05 23:28:00,,0822.1,4.99,0.00,30.1,29.1,00.0,38.9,31.9,10.4,0000.0,0009.39,0004.62,0003.40
2022-05-05 23:29:00,,0822.1,5.00,0.00,30.1,29.2,00.0,39.0,31.9,10.8,0000.0,0009.80,0004.62,0003.40
2022-05-05 23:30:00,,0822.1,5.01,0.00,30.1,29.3,00.0,39.0,31.9,10.9,0000.0,0010.04,0004.62,0003.40
2022-05-05 23:31:00,,0822.1,5.01,0.00,30.1,29.3,00.0,39.0,31.9,10.4,0000.0,0010.04,0004.60,0003.39
2022-05-05 23:32:00,,0822.1,4.99,0.00,30.2,29.4,00.0,39.0,32.0,10.5,0000.0,0010.15,0004.67,0003.40
2022-05-05 23:33:00,,0822.1,5.00,0.00,30.2,29.4,00.0,39.0,32.0,11.0,0000.0,0010.23,0004.68,0003.40
2022-05-05 23:34:00,,0822.1,5.00,0.00,30.2,29.4,00.0,39.0,32.0,10.2,0000.0,0010.30,0004.67,0003.40
2022-05-05 23:35:00,,0822.1,5.00,0.00,30.2,29.5,00.0,39.0,32.1,10.2,0000.0,0010.16,0004.63,0003.40
2022-05-05 23:36:00,,0822.1,5.00,0.00,30.2,29.5,00.0,39.0,32.1,10.4,0000.0,0009.94,0004.55,0003.39
2022-05-05 23:37:00,,0822.1,5.00,0.00,30.3,29.5,00.0,39.1,32.1,10.4,0000.0,0009.95,0004.57,0003.38
2022-05-05 23:38:00,,0822.1,5.00,0.00,30.3,29.6,00.0,39.1,32.1,10.3,0000.0,0009.82,0004.54,0003.38
2022-05-05 23:39:00,,0822.1,5.01,0.00,30.3,29.6,00.0,39.1,32.1,10.8,0000.0,0009.84,0004.53,0003.38
2022-05-05 23:40:00,,0822.1,5.00,0.00,30.3,28.9,00.0,39.1,31.9,10.7,0000.0,0009.39,0004.51,0003.38
2022-05-05 23:41:00,,0822.1,4.99,0.00,30.2,26.5,00.0,39.1,31.4,10.8,0000.0,0009.11,0004.51,0003.38
2022-05-05 23:42:00,,0822.1,5.00,0.00,30.0,25.5,00.0,39.0,31.2,10.5,0000.0,0009.05,0004.49,0003.37
2022-05-05 23:43:00,,0822.1,5.01,0.00,29.9,25.8,00.0,39.0,31.2,10.3,0000.0,0008.97,0004.45,0003.37
2022-05-05 23:44:00,,0822.1,5.00,0.00,29.8,26.3,00.0,38.9,31.2,10.2,0000.0,0008.91,0004.47,0003.37
2022-05-05 23:45:00,,0822.1,5.00,0.00,29.8,26.8,00.0,38.9,31.3,10.0,0000.0,0008.89,0004.53,0003.38
2022-05-05 23:46:00,,0822.1,5.00,0.00,29.8,27.3,00.0,38.8,31.4,10.0,0000.0,0009.01,0004.59,0003.38
2022-05-05 23:47:00,,0822.1,5.01,0.00,29.8,27.6,00.0,38.8,31.5,10.1,0000.0,0009.06,0004.61,0003.37
2022-05-05 23:48:00,,0822.1,4.99,0.00,29.8,28.0,00.0,38.8,31.5,10.5,0000.0,0009.08,0004.59,0003.37
2022-05-05 23:49:00,,0822.1,5.01,0.00,29.8,28.2,00.0,38.8,31.6,11.2,0000.0,0009.12,0004.59,0003.36
2022-05-05 23:50:00,,0822.1,5.01,0.00,29.8,28.4,00.0,38.8,31.7,10.8,0000.0,0008.95,0004.54,0003.36
2022-05-05 23:51:00,,0822.1,4.99,0.00,29.9,28.6,00.0,38.8,31.7,10.5,0000.0,0008.95,0004.53,0003.36
2022-05-05 23:52:00,,0822.1,5.01,0.00,29.9,28.7,00.0,38.8,31.7,10.6,0000.0,0009.06,0004.53,0003.36
2022-05-05 23:53:00,,0822.2,5.00,0.00,29.9,28.8,00.0,38.8,31.8,11.0,0000.0,0009.47,0004.55,0003.35
2022-05-05 23:54:00,,0822.2,4.99,0.00,29.9,28.9,00.0,38.8,31.8,10.4,0000.0,0009.58,0004.58,0003.35
2022-05-05 23:55:00,,0822.2,5.01,0.00,30.0,29.0,00.0,38.8,31.8,10.7,0000.0,0009.50,0004.52,0003.34
2022-05-05 23:56:00,,0822.2,4.99,0.00,30.0,29.1,00.0,38.8,31.8,10.6,0000.0,0009.78,0004.50,0003.33
2022-05-05 23:57:00,,0822.1,5.00,0.00,30.0,29.1,00.0,38.8,31.8,10.4,0000.0,0009.57,0004.42,0003.32
2022-05-05 23:58:00,,0822.2,5.00,0.00,30.0,29.2,00.0,38.9,31.9,10.1,0000.0,0009.54,0004.40,0003.32
2022-05-05 23:59:00,,0822.1,4.98,0.00,30.1,29.2,00.0,38.9,31.9,10.2,0000.0,0009.91,0004.45,0003.31
